Weather History for Quillayute, WA

Change the Weather History Date:

Friday, January 4, 2013

  Actual Average Record
Temperature  
Mean Temperature 45 °F 41 °F  
Max Temperature 48 °F 46 °F 56 °F (2006)
Min Temperature 41 °F 36 °F 19 °F (1982)
Degree Days  
Heating Degree Days 20 24  
Month to date heating degree days 96  
Since 1 July heating degree days 2574  
Cooling Degree Days 0 0  
Month to date cooling degree days 0  
Year to date cooling degree days 0  
Moisture  
Dew Point 44 °F    
Average Humidity 96    
Maximum Humidity 100    
Minimum Humidity 87    
Precipitation  
Precipitation 0.30 in 0.47 in 3.07 in (2001)
Month to date precipitation 1.86  
Year to date precipitation 1.86  
Sea Level Pressure  
Sea Level Pressure 30.21 in    
Wind  
Wind Speed 4 mph (SSE)    
Max Wind Speed 14 mph    
Max Gust Speed 24 mph    
Visibility 2 miles    
Events Fog , Rain    
T = Trace of Precipitation, MM = Missing Value Source: NWS Daily Summary

Daily Weather History Graph

Daily Weather History Graph

Search for Another Location

Airport:

Trip Planner

Search our weather history database for the weather conditions in past years. The results will help you decide how hot, cold, wet, or windy it might be!

Date:

Astronomy

Jan. 04, 2013 Rise Set
Actual Time 8:07 AM PST 4:39 PM PST
Civil Twilight 7:31 AM PST 5:15 PM PST
Nautical Twilight 6:52 AM PST 5:54 PM PST
Astronomical Twilight 6:14 AM PST 6:32 PM PST
Moon No Moon Rise 11:18 AM PST (1/4)
Length of Visible Light 9h 43m
Length of Day
8h 32m
Waning Gibbous, 54% of the Moon is Illuminated
Jan 4
Waning Gibbous
Jan 4
Last Quarter
Jan 11
New
Jan 18
First Quarter
Jan 26
Full

Hourly Weather History & Observations

Time (PST) Temp. Windchill Dew Point Humidity Pressure Visibility Wind Dir Wind Speed Gust Speed Precip Events Conditions
12:08 AM 44.6 °F 41.4 °F 44.6 °F 100% 30.06 in 1.5 mi Variable 5.8 mph 17.3 mph 0.01 in Rain Light Rain
12:38 AM 44.6 °F 38.4 °F 44.6 °F 100% 30.08 in 2.5 mi South 12.7 mph 21.9 mph 0.01 in   Overcast
12:53 AM 45.0 °F 41.2 °F 44.1 °F 97% 30.09 in 3.0 mi South 6.9 mph 24.2 mph 0.02 in Rain Light Rain
1:53 AM 46.0 °F 41.9 °F 44.1 °F 93% 30.14 in 4.0 mi SSE 8.1 mph - 0.00 in   Overcast
2:31 AM 46.4 °F 45.2 °F 44.6 °F 93% 30.15 in 2.0 mi Variable 3.5 mph - 0.00 in Rain Light Rain
2:42 AM 46.4 °F - 44.6 °F 93% 30.15 in 1.2 mi Calm Calm - 0.01 in Rain Light Rain
2:53 AM 46.0 °F 43.9 °F 45.0 °F 96% 30.16 in 1.0 mi SSW 4.6 mph - 0.03 in Rain Light Rain
3:24 AM 46.4 °F - 44.6 °F 93% 30.16 in 1.5 mi Calm Calm - N/A Rain Light Rain
3:35 AM 46.4 °F 45.2 °F 44.6 °F 93% 30.16 in 1.0 mi Variable 3.5 mph - 0.04 in Rain Light Rain
3:50 AM 46.4 °F 45.2 °F 44.6 °F 93% 30.16 in 0.8 mi SSE 3.5 mph - 0.07 in Rain Light Rain
3:53 AM 46.0 °F 43.9 °F 45.0 °F 96% 30.16 in 0.8 mi SE 4.6 mph - 0.07 in Rain Light Rain
4:17 AM 44.6 °F 43.1 °F 44.6 °F 100% 30.17 in 1.0 mi SSE 3.5 mph - 0.04 in Rain Light Rain
4:24 AM 44.6 °F 43.1 °F 44.6 °F 100% 30.17 in 0.8 mi SE 3.5 mph - 0.04 in Rain Light Rain
4:53 AM 45.0 °F 41.8 °F 45.0 °F 100% 30.17 in 0.8 mi SSE 5.8 mph - 0.07 in Rain Light Rain
5:40 AM 44.6 °F - 44.6 °F 100% 30.19 in 1.2 mi Calm Calm - 0.02 in Rain Light Rain
5:53 AM 45.0 °F 43.5 °F 45.0 °F 100% 30.19 in 1.0 mi SSE 3.5 mph - 0.03 in Rain Light Rain
6:12 AM 44.6 °F 43.1 °F 44.6 °F 100% 30.19 in 1.5 mi SSE 3.5 mph - 0.00 in   Overcast
6:21 AM 44.6 °F 42.2 °F 44.6 °F 100% 30.19 in 1.0 mi SSE 4.6 mph - 0.01 in Rain Light Rain
6:34 AM 44.6 °F 41.4 °F 44.6 °F 100% 30.19 in 1.5 mi SSE 5.8 mph - 0.01 in Rain Light Rain
6:41 AM 44.6 °F - 44.6 °F 100% 30.19 in 1.2 mi Calm Calm - 0.01 in Rain Light Rain
6:53 AM 45.0 °F 43.5 °F 45.0 °F 100% 30.20 in 0.8 mi Variable 3.5 mph - 0.01 in   Mist
7:04 AM 44.6 °F 43.1 °F 44.6 °F 100% 30.20 in 1.0 mi Variable 3.5 mph - 0.01 in Rain Light Rain
7:53 AM 45.0 °F 42.6 °F 45.0 °F 100% 30.22 in 1.0 mi South 4.6 mph - 0.02 in   Mist
8:10 AM 44.6 °F 43.1 °F 44.6 °F 100% 30.22 in 1.8 mi Variable 3.5 mph - 0.01 in   Overcast
8:21 AM 44.6 °F 42.2 °F 44.6 °F 100% 30.23 in 1.0 mi South 4.6 mph - 0.01 in   Mist
8:29 AM 44.6 °F 41.4 °F 44.6 °F 100% 30.23 in 0.5 mi South 5.8 mph - 0.01 in Fog Fog
8:53 AM 45.0 °F 41.8 °F 45.0 °F 100% 30.25 in 0.8 mi South 5.8 mph - 0.01 in   Mist
9:53 AM 46.0 °F - 45.0 °F 96% 30.27 in 0.2 mi Calm Calm - 0.02 in Fog , Rain Light Rain
10:04 AM 46.4 °F 45.2 °F 46.4 °F 100% 30.27 in 0.5 mi South 3.5 mph - 0.01 in Fog Fog
10:18 AM 46.4 °F - 46.4 °F 100% 30.27 in 0.5 mi Calm Calm - 0.01 in Fog Fog
10:25 AM 46.4 °F 44.3 °F 46.4 °F 100% 30.27 in 1.5 mi South 4.6 mph - 0.01 in   Overcast
10:31 AM 46.4 °F 43.5 °F 46.4 °F 100% 30.27 in 1.0 mi SSW 5.8 mph - N/A   Mist
10:41 AM 46.4 °F 44.3 °F 44.6 °F 93% 30.28 in 0.8 mi SW 4.6 mph - 0.01 in   Mist
10:53 AM 46.0 °F 44.8 °F 45.0 °F 96% 30.28 in 0.8 mi South 3.5 mph - 0.01 in   Mist
10:59 AM 46.4 °F 45.2 °F 44.6 °F 93% 30.28 in 1.5 mi Variable 3.5 mph - N/A   Overcast
11:16 AM 46.4 °F - 46.4 °F 100% 30.27 in 0.8 mi Calm Calm - N/A   Mist
11:32 AM 46.4 °F 45.2 °F 44.6 °F 93% 30.27 in 1.0 mi South 3.5 mph - N/A   Mist
11:39 AM 46.4 °F - 44.6 °F 93% 30.27 in 0.8 mi Calm Calm - 0.00 in Rain Light Rain
11:44 AM 46.4 °F 45.2 °F 44.6 °F 93% 30.26 in 1.2 mi South 3.5 mph - 0.00 in   Overcast
11:53 AM 46.0 °F 43.9 °F 45.0 °F 96% 30.27 in 1.8 mi South 4.6 mph - 0.00 in   Overcast
11:57 AM 46.4 °F 43.5 °F 44.6 °F 93% 30.26 in 1.2 mi SSE 5.8 mph - 0.01 in   Overcast
12:03 PM 46.4 °F 44.3 °F 44.6 °F 93% 30.26 in 0.8 mi South 4.6 mph - 0.01 in   Overcast
12:12 PM 46.4 °F 45.2 °F 46.4 °F 100% 30.25 in 1.0 mi SSE 3.5 mph - 0.01 in Rain Light Rain
12:17 PM 46.4 °F 44.3 °F 46.4 °F 100% 30.25 in 2.0 mi SSE 4.6 mph - 0.01 in   Overcast
12:26 PM 46.4 °F 45.2 °F 46.4 °F 100% 30.25 in 4.0 mi South 3.5 mph - 0.01 in   Mostly Cloudy
12:51 PM 48.2 °F - 46.4 °F 93% 30.24 in 4.0 mi South 6.9 mph - 0.01 in   Mostly Cloudy
12:53 PM 48.0 °F - 46.0 °F 93% 30.25 in 4.0 mi South 5.8 mph - 0.01 in   Mostly Cloudy
1:02 PM 48.2 °F - 44.6 °F 87% 30.24 in 4.0 mi South 4.6 mph - N/A   Mostly Cloudy
1:19 PM 46.4 °F 44.3 °F 44.6 °F 93% 30.23 in 1.8 mi Variable 4.6 mph - N/A   Mostly Cloudy
1:25 PM 46.4 °F 43.5 °F 46.4 °F 100% 30.23 in 1.5 mi South 5.8 mph - N/A   Overcast
1:34 PM 46.4 °F - 44.6 °F 93% 30.23 in 3.0 mi Calm Calm - N/A   Overcast
1:53 PM 46.9 °F - 45.0 °F 93% 30.23 in 4.0 mi SSW 5.8 mph - N/A   Overcast
2:07 PM 46.4 °F 42.9 °F 44.6 °F 93% 30.23 in 4.0 mi South 6.9 mph - N/A   Overcast
2:24 PM 46.4 °F 43.5 °F 44.6 °F 93% 30.23 in 2.5 mi South 5.8 mph - N/A   Overcast
2:35 PM 46.4 °F 45.2 °F 44.6 °F 93% 30.23 in 4.0 mi SSE 3.5 mph - N/A   Overcast
2:53 PM 46.9 °F - 44.1 °F 90% 30.23 in 4.0 mi Calm Calm - N/A   Overcast
3:36 PM 46.4 °F - 44.6 °F 93% 30.21 in 4.0 mi Calm Calm - N/A   Mostly Cloudy
3:53 PM 46.0 °F - 44.1 °F 93% 30.21 in 4.0 mi Calm Calm - N/A   Overcast
4:05 PM 46.4 °F - 44.6 °F 93% 30.20 in 3.0 mi Calm Calm - N/A   Overcast
4:53 PM 44.1 °F - 43.0 °F 96% 30.20 in 4.0 mi Calm Calm - N/A   Partly Cloudy
5:39 PM 44.6 °F 40.7 °F 42.8 °F 93% 30.19 in 5.0 mi ENE 6.9 mph - N/A   Overcast
5:53 PM 44.1 °F 40.1 °F 43.0 °F 96% 30.19 in 5.0 mi NE 6.9 mph - N/A   Overcast
6:10 PM 44.6 °F 41.4 °F 42.8 °F 93% 30.18 in 6.0 mi NE 5.8 mph - N/A   Overcast
6:53 PM 43.0 °F 39.5 °F 42.1 °F 97% 30.17 in 6.0 mi ENE 5.8 mph - N/A   Overcast
7:53 PM 43.0 °F - 42.1 °F 97% 30.16 in 5.0 mi Calm Calm - N/A   Overcast
8:53 PM 42.1 °F - 41.0 °F 96% 30.14 in 5.0 mi Calm Calm - N/A   Overcast
9:53 PM 42.1 °F 40.2 °F 41.0 °F 96% 30.13 in 6.0 mi East 3.5 mph - N/A   Overcast
10:53 PM 43.0 °F 40.3 °F 41.0 °F 93% 30.12 in 6.0 mi East 4.6 mph - N/A   Overcast
11:53 PM 43.0 °F - 41.0 °F 93% 30.12 in 6.0 mi Calm Calm - N/A   Overcast